User: anonymous   Login
Location: Unspecified
(0.0000°N, 0.0000°E)
Time: 03:07:54
(UTC+00:00)
Language:

Kosmos-2266 - Orbit

View from above orbital plane
View from above orbital plane
View from above satellite
View from above satellite

Ground track
Ground track

The orbit data is extracted from the following two-line orbital elements,

1 22888U 93070A   19054.72917365  .00000017  00000-0  11501-5 0  9997
2 22888  82.9473 257.2283 0049427  78.8870 329.0261 13.74924246267275
Epoch (UTC): 23 February 2019 17:30:00
Eccentricity: 0.0049427
inclination: 82.9473°
perigee height: 945 km
apogee height: 1018 km
right ascension of ascending node: 257.2283°
argument of perigee: 78.8870°
revolutions per day: 13.74924246
mean anomaly at epoch: 329.0261°
orbit number at epoch: 26727

The dashed part of the orbit path shows where the satellite is in the earth's shadow,  

DLR